Blackpool, United Kingdom

10:09 AM BST on May 27, 2017 (GMT +0100)
Blackpool

Weather History for EGNH - November, 2011

Change the Weather History Date:

Tuesday, November 22, 2011

  Actual Average Record
Temperature  
Mean Temperature 48 °F -  
Max Temperature 51 °F 44 °F 55 °F (2014)
Min Temperature 42 °F 38 °F 30 °F (2015)
Degree Days  
Heating Degree Days 17    
Moisture  
Dew Point 44 °F    
Average Humidity 84    
Maximum Humidity 100    
Minimum Humidity 67    
Precipitation  
Precipitation 0.00 in - - ()
Sea Level Pressure  
Sea Level Pressure 30.09 in    
Wind  
Wind Speed 8 mph ()    
Max Wind Speed 16 mph    
Max Gust Speed -    
Visibility 5.2 miles    
Events      
Averages and records for this station are not official NWS values.
T = Trace of Precipitation, MM = Missing Value Source: Averaged Metar Reports

Daily Weather History Graph

Daily Weather History Graph

Search for Another Location

Airport or City:

Trip Planner

Search our weather history database for the weather conditions in past years. The results will help you decide how hot, cold, wet, or windy it might be!

Date:

Astronomy

Nov. 22, 2011 Rise Set
Actual Time 7:50 AM GMT 4:04 PM GMT
Civil Twilight 7:10 AM GMT 4:45 PM GMT
Nautical Twilight 6:26 AM GMT 5:29 PM GMT
Astronomical Twilight 5:44 AM GMT 6:10 PM GMT
Moon 4:02 AM GMT (11/22) 2:12 PM GMT (11/22)
Length of Visible Light 9h 34m
Length of Day
8h 13m
Waning Crescent, 11% of the Moon is Illuminated
Nov 22
Waning Crescent
Nov 25
New
Dec 2
First Quarter
Dec 10
Full
Dec 18
Last Quarter

Hourly Weather History & Observations

Time (GMT) Temp. Windchill Dew Point Humidity Pressure Visibility Wind Dir Wind Speed Gust Speed Precip Events Conditions
2:50 AM 49 °F - 48 °F 93%  in - SSE 10.4 mph - -  
5:50 AM 50 °F - 49 °F 95%  in - South 6.9 mph - -  
6:20 AM 50.0 °F - 50.0 °F 100% 29.98 in 2.2 mi South 6.9 mph - N/A   Mostly Cloudy
6:50 AM 50.0 °F - 50.0 °F 100% 29.98 in 2.8 mi SW 4.6 mph - N/A   Scattered Clouds
7:20 AM 50.0 °F - 50.0 °F 100% 29.98 in 2.2 mi Variable 3.5 mph - N/A   Mostly Cloudy
8:20 AM 50.0 °F - 50.0 °F 100% 30.01 in 1.6 mi NW 4.6 mph - N/A   Mostly Cloudy
8:50 AM 50 °F - 49 °F 97%  in - NW 5.8 mph - -  
8:50 AM 50.0 °F - 50.0 °F 100% 30.04 in 1.6 mi WNW 4.6 mph - N/A   Mostly Cloudy
9:20 AM 50.0 °F - 50.0 °F 100% 30.04 in 2.8 mi WNW 4.6 mph - N/A   Mostly Cloudy
9:50 AM 50.0 °F - 50.0 °F 100% 30.04 in 6.2 mi WNW 11.5 mph - N/A   Partly Cloudy
10:20 AM 50.0 °F - 48.2 °F 94% 30.06 in 6.2 mi WNW 13.8 mph - N/A   Partly Cloudy
10:50 AM 50.0 °F - 48.2 °F 94% 30.06 in 6.2 mi WNW 12.7 mph - N/A   Mostly Cloudy
11:20 AM 50.0 °F - 46.4 °F 87% 30.06 in 6.2 mi WNW 12.7 mph - N/A   Mostly Cloudy
11:50 AM 50.0 °F - 46.4 °F 87% 30.06 in 6.2 mi WNW 11.5 mph - N/A   Partly Cloudy
12:20 PM 50.0 °F - 44.6 °F 82% 30.06 in 6.2 mi WNW 12.7 mph - N/A   Partly Cloudy
12:50 PM 51.8 °F - 44.6 °F 76% 30.09 in 6.2 mi WNW 10.4 mph - N/A   Partly Cloudy
1:20 PM 51.8 °F - 44.6 °F 76% 30.09 in 6.2 mi WNW 10.4 mph - N/A   Partly Cloudy
1:50 PM 51.8 °F - 46.4 °F 82% 30.09 in 6.2 mi West 11.5 mph - N/A   Scattered Clouds
2:20 PM 50.0 °F - 44.6 °F 82% 30.09 in 6.2 mi WNW 11.5 mph - N/A   Scattered Clouds
2:50 PM 50 °F - 43 °F 69%  in - WNW 12.7 mph - -  
2:50 PM 50.0 °F - 44.6 °F 82% 30.12 in 6.2 mi West 11.5 mph - N/A   Scattered Clouds
3:20 PM 50.0 °F - 42.8 °F 76% 30.12 in 6.2 mi West 10.4 mph - N/A   Scattered Clouds
3:50 PM 50.0 °F - 41.0 °F 71% 30.12 in 6.2 mi WNW 8.1 mph - N/A   Partly Cloudy
4:20 PM 48.2 °F - 41.0 °F 76% 30.12 in 6.2 mi West 8.1 mph - N/A   Partly Cloudy
5:20 PM 48.2 °F - 41.0 °F 76% 30.15 in 6.2 mi West 8.1 mph - N/A   Partly Cloudy
5:50 PM 45 °F - 38 °F 69%  in - West 9.2 mph - -  
5:50 PM 46.4 °F 42.4 °F 39.2 °F 76% 30.15 in 6.2 mi WSW 8.1 mph - N/A   Partly Cloudy
6:20 PM 48.2 °F - 39.2 °F 71% 30.15 in 6.2 mi WSW 8.1 mph - N/A   Partly Cloudy
6:50 PM 46.4 °F 41.1 °F 39.2 °F 76% 30.15 in 6.2 mi WSW 11.5 mph - N/A   Partly Cloudy
7:20 PM 46.4 °F 41.5 °F 39.2 °F 76% 30.18 in - WSW 10.4 mph - N/A   Clear
7:50 PM 46.4 °F 40.7 °F 39.2 °F 76% 30.18 in - SW 12.7 mph - N/A   Clear
8:20 PM 46.4 °F 41.1 °F 39.2 °F 76% 30.18 in - SW 11.5 mph - N/A   Clear
8:50 PM 48 °F - 40 °F 67%  in - WSW 16.1 mph - -  
8:50 PM 48.2 °F - 41.0 °F 76% 30.18 in - SW 13.8 mph - N/A   Clear
11:50 PM 42 °F - 38 °F 82%  in - SSE 8.1 mph - -